| time (UTC) | temp C | wind direction | speed KPH | gust KPH | rain 1hr cm | rain 24hr cm | rain mn cm | humidity % | barometer mb |
| 20260504060212 | 8 | 265 | 1.6 | 0.0 | 0.00 | 0.00 | 0.00 | 86 | 1012.1 |
| 20260504050210 | 6 | 265 | 0.0 | 0.0 | 0.00 | 0.00 | 0.00 | 88 | 1011.9 |
| 20260504043211 | 6 | 265 | 0.0 | 0.0 | 0.00 | 0.00 | 0.00 | 86 | 1012.0 |
| 20260504040211 | 6 | 265 | 0.0 | 0.0 | 0.00 | 0.00 | 0.00 | 86 | 1012.0 |
| 20260504033211 | 7 | 265 | 0.0 | 0.0 | 0.00 | 0.00 | 0.00 | 84 | 1012.3 |
| 20260504030212 | 7 | 265 | 0.0 | 0.0 | 0.00 | 0.00 | 0.00 | 82 | 1012.3 |
| 20260504023211 | 8 | 265 | 0.0 | 0.0 | 0.00 | 0.00 | 0.00 | 81 | 1012.3 |
| 20260504020212 | 10 | 265 | 0.0 | 0.0 | 0.00 | 0.00 | 0.00 | 79 | 1012.3 |
| 20260504013211 | 10 | 265 | 0.0 | 0.0 | 0.00 | 0.00 | 0.00 | 78 | 1012.4 |
| 20260504010211 | 9 | 265 | 0.0 | 0.0 | 0.00 | 0.00 | 0.00 | 80 | 1012.1 |
| 20260504003210 | 10 | 265 | 0.0 | 0.0 | 0.00 | 0.00 | 0.00 | 77 | 1012.5 |
| 20260504000208 | 10 | 265 | 0.0 | 0.0 | 0.00 | 0.00 | 0.00 | 77 | 1012.7 |
| 20260503233209 | 11 | 265 | 0.0 | 0.0 | 0.00 | 0.00 | 0.00 | 74 | 1012.8 |
| 20260503230209 | 12 | 265 | 0.0 | 0.0 | 0.00 | 0.00 | 0.00 | 71 | 1013.0 |
| 20260503223210 | 13 | 265 | 0.0 | 0.0 | 0.00 | 0.00 | 0.00 | 65 | 1013.1 |
| 20260503220212 | 12 | 265 | 0.0 | 0.0 | 0.00 | 0.00 | 0.00 | 67 | 1013.0 |
| 20260503213210 | 12 | 265 | 0.0 | 0.0 | 0.00 | 0.00 | 0.00 | 68 | 1012.6 |
| 20260503210211 | 13 | 265 | 0.0 | 0.0 | 0.00 | 0.00 | 0.00 | 62 | 1012.4 |
| 20260503203209 | 14 | 265 | 0.0 | 0.0 | 0.00 | 0.00 | 0.00 | 57 | 1012.3 |
| 20260503200211 | 15 | 265 | 0.0 | 0.0 | 0.00 | 0.00 | 0.00 | 49 | 1011.9 |
| 20260503193210 | 16 | 265 | 3.2 | 0.0 | 0.00 | 0.00 | 0.00 | 45 | 1011.6 |
| 20260503190210 | 17 | 265 | 6.4 | 0.0 | 0.00 | 0.00 | 0.00 | 44 | 1011.5 |
| 20260503183209 | 18 | 265 | 22.5 | 0.0 | 0.00 | 0.00 | 0.00 | 40 | 1011.1 |
| 20260503180210 | 20 | 236 | 0.0 | 0.0 | 0.00 | 0.00 | 0.00 | 48 | 1010.2 |
| 20260503173209 | 21 | 234 | 9.7 | 0.0 | 0.00 | 0.00 | 0.00 | 44 | 1010.2 |
| 20260503170211 | 22 | 232 | 4.8 | 0.0 | 0.00 | 0.00 | 0.00 | 41 | 1010.0 |
| 20260503160211 | 24 | 231 | 1.6 | 0.0 | 0.00 | 0.00 | 0.00 | 32 | 1009.6 |
| 20260503150209 | 23 | 233 | 11.3 | 0.0 | 0.00 | 0.00 | 0.00 | 30 | 1010.0 |
| 20260503140210 | 25 | 225 | 12.9 | 0.0 | 0.00 | 0.00 | 0.00 | 28 | 1010.3 |
| 20260503130210 | 24 | 220 | 12.9 | 0.0 | 0.00 | 0.00 | 0.00 | 24 | 1011.1 |
| 20260503120210 | 23 | 217 | 4.8 | 0.0 | 0.00 | 0.00 | 0.00 | 37 | 1011.5 |
| 20260503110210 | 23 | 195 | 11.3 | 0.0 | 0.00 | 0.00 | 0.00 | 42 | 1012.0 |
| 20260503100212 | 22 | 182 | 11.3 | 0.0 | 0.00 | 0.00 | 0.00 | 42 | 1012.5 |
| 20260503090210 | 21 | 180 | 0.0 | 0.0 | 0.00 | 0.00 | 0.00 | 47 | 1013.0 |
| 20260503080212 | 18 | 178 | 9.7 | 0.0 | 0.00 | 0.00 | 0.00 | 54 | 1013.3 |
| 20260503070211 | 14 | 175 | 0.0 | 0.0 | 0.00 | 0.00 | 0.00 | 70 | 1013.3 |